Hourly Data Report for September 04, 2020

SHEARWATER RCS
NOVA SCOTIA
Current Station Operator: ECCC - MSC

44°37'47.000" N
63°30'48.000" W
24.00 m
8205092
71264
AAW

Download Data

Hourly Data (September 2020)
Hourly Data Report for September 4, 2020
TIME Temp Definition
°C
Dew Point Definition
°C
Rel Hum Definition
%
Wind Dir Definition
10's deg

Wind Spd Definition
km/h
Visibility Definition
km
Stn Press Definition
kPa
Hmdx Definition


Wind Chill Definition


Weather Definition


00:00 17.9 17.4 97 17 16   100.65     LegendNANA
01:00 18.0 17.5 97 16 17   100.56     LegendNANA
02:00 17.8 17.3 97 17 18   100.54     LegendNANA
03:00 17.7 17.2 97 16 21   100.47     LegendNANA
04:00 18.3 17.8 97 17 23   100.43     LegendNANA
05:00 19.3 18.8 97 19 20   100.45     LegendNANA
06:00 19.5 19.0 97 20 19   100.48     LegendNANA
07:00 18.2 17.7 97 21 13   100.51     LegendNANA
08:00 18.2 17.7 97 15 5   100.56     LegendNANA
09:00 18.6 18.2 97 20 8   100.64     LegendNANA
10:00 20.4 19.9 97 21 8   100.64 28   LegendNANA
11:00 21.8 19.6 87 16 11   100.65 29   LegendNANA
12:00 22.5 18.3 78 17 9   100.67 29   LegendNANA
13:00 23.3 17.8 71 21 11   100.68 29   LegendNANA
14:00 21.2 17.6 80 20 7   100.73 27   LegendNANA
15:00 21.2 17.4 79 23 6   100.72 27   LegendNANA
16:00 19.2 16.5 84 13 9   100.71     LegendNANA
17:00 18.8 16.7 87 12 8   100.74     LegendNANA
18:00 17.1 15.9 92 14 9   100.75     LegendNANA
19:00 16.7 16.0 95 16 5   100.77     LegendNANA
20:00 17.0 16.4 96 15 4   100.84     LegendNANA
21:00 17.5 16.9 96 7 2   100.82     LegendNANA
22:00 17.3 16.6 96 16 3   100.81     LegendNANA
23:00 17.9 17.3 96   0   100.77     LegendNANA

Notes on Data Quality.

Legend

  • E = Estimated
  • M = Missing
  • NA = Not Available*
  • [empty] = Indicates an unobserved value
Date modified: